Starlink 3845

operational
NORAD ID: 52541 Int'l Des: 2022-051 Owner: SPXS Country: US Constellation: starlink
LEOCIRCULAR

关于 Starlink 3845

正在加载描述...

实时位置

正在加载3D地球...

即将过境

高度历史

Altitude vs Time

uPlot chart will show altitude changes over time

两行轨道根数

1 52541U 22051J 25347.67299125 .00001408 00000-0 10657-3 0 9994
2 52541 53.2166 160.2629 0001345 83.6161 276.4984 15.08832456198387
Epoch: Dec 13, 2025 • Age: 20 hours

当前状态

高度 541.4 km
速度 7.59 km/s
星下点 -4.12°S, 75.51°E
发射日期 May 13, 2022
运行时间 3.5 years
类型 internet

技术详情

分类 Payload
质量 297.00 kg
干质量 275.00 kg
总质量 297.00 kg
长度 0.20 m
直径 2.80 m
跨度 9.00 m
形状 Box + pan
制造商 SPXS
平台类型 Starlink
阶段状态 In Orbit
所有者/国家 SPXS/US

大型星座

Loading constellations...